Gilze-Rijen, Netherlands

6:55 PM CET on February 24, 2017 (GMT +0100)
Gilze-Rijen Air Base

Weather History for EHGR - February, 2014

Change the Weather History Date:

Tuesday, February 4, 2014

  Actual Average Record
Temperature  
Mean Temperature 42 °F -  
Max Temperature 50 °F 44 °F 62 °F (2004)
Min Temperature 35 °F 33 °F 1 °F (2012)
Degree Days  
Heating Degree Days 22    
Moisture  
Dew Point 36 °F    
Average Humidity 73    
Maximum Humidity 93    
Minimum Humidity 49    
Precipitation  
Precipitation 0.00 in - - ()
Sea Level Pressure  
Sea Level Pressure 29.67 in    
Wind  
Wind Speed 11 mph ()    
Max Wind Speed 18 mph    
Max Gust Speed -    
Visibility 6.9 miles    
Events      
Averages and records for this station are not official NWS values.
T = Trace of Precipitation, MM = Missing Value Source: Averaged Metar Reports

Daily Weather History Graph

Daily Weather History Graph

Search for Another Location

Airport or City:

Trip Planner

Search our weather history database for the weather conditions in past years. The results will help you decide how hot, cold, wet, or windy it might be!

Date:

Astronomy

Feb. 04, 2014 Rise Set
Actual Time 8:14 AM CET 5:34 PM CET
Civil Twilight 7:38 AM CET 6:10 PM CET
Nautical Twilight 6:58 AM CET 6:50 PM CET
Astronomical Twilight 6:19 AM CET 7:29 PM CET
Moon 10:01 AM CET (2/4) 11:58 PM CET (2/4)
Length of Visible Light 10h 32m
Length of Day
9h 20m
Waxing Crescent, 26% of the Moon is Illuminated
Feb 4
Waxing Crescent
Feb 6
First Quarter
Feb 15
Full
Feb 22
Last Quarter
Mar 1
New

Hourly Weather History & Observations

Time (CET) Temp. Windchill Dew Point Humidity Pressure Visibility Wind Dir Wind Speed Gust Speed Precip Events Conditions
12:00 AM 41 °F - 35 °F 72% 29.66 in 9 mi SE 8.9 mph - -   Overcast
12:25 AM 39.2 °F 33.6 °F 35.6 °F 87% 29.65 in 6.2 mi SE 8.1 mph - N/A   Overcast
12:55 AM 39.2 °F 33.0 °F 33.8 °F 81% 29.65 in 6.2 mi SE 9.2 mph - N/A   Unknown
1:00 AM 38 °F - 34 °F 79% 29.65 in 7 mi SE 11.2 mph - -   Partly Cloudy
1:25 AM 37.4 °F 30.8 °F 33.8 °F 87% 29.62 in 6.2 mi SE 9.2 mph - N/A   Partly Cloudy
1:55 AM 37.4 °F 30.8 °F 33.8 °F 87% 29.62 in 6.2 mi SE 9.2 mph - N/A   Partly Cloudy
2:00 AM 37 °F - 33 °F 82% 29.65 in 6 mi SE 8.9 mph - -   Mist
2:25 AM 35.6 °F 29.2 °F 33.8 °F 93% 29.62 in 6.2 mi SE 8.1 mph - N/A   Unknown
2:55 AM 37.4 °F 30.8 °F 33.8 °F 87% 29.62 in 6.2 mi SSE 9.2 mph - N/A   Unknown
3:00 AM 36 °F - 33 °F 85% 29.64 in 6 mi SSE 8.9 mph - -  
3:25 AM 35.6 °F 28.6 °F 32.0 °F 87% 29.62 in 5.6 mi SE 9.2 mph - N/A   Mist
3:55 AM 37.4 °F 29.8 °F 33.8 °F 87% 29.62 in 6.2 mi SSE 11.5 mph - N/A   Unknown
4:00 AM 37 °F - 33 °F 80% 29.63 in 7 mi SSE 11.2 mph - -  
4:25 AM 37.4 °F 29.8 °F 33.8 °F 87% 29.62 in 6.2 mi SSE 11.5 mph - N/A   Unknown
4:55 AM 37.4 °F 29.8 °F 33.8 °F 87% 29.62 in 6.2 mi SSE 11.5 mph - N/A   Overcast
5:00 AM 38 °F - 33 °F 77% 29.64 in 9 mi South 11.2 mph - -   Overcast
5:25 AM 37.4 °F 30.8 °F 33.8 °F 87% 29.62 in 6.2 mi SSE 9.2 mph - N/A   Mostly Cloudy
5:55 AM 39.2 °F 31.6 °F 33.8 °F 81% 29.62 in 6.2 mi SSE 12.7 mph - N/A   Mostly Cloudy
6:00 AM 40 °F - 34 °F 72% 29.63 in 14 mi SSE 13.4 mph - -   Mostly Cloudy
6:25 AM 41.0 °F 33.5 °F 33.8 °F 76% 29.62 in 6.2 mi SSE 13.8 mph - N/A   Mostly Cloudy
6:55 AM 41.0 °F 33.1 °F 35.6 °F 81% 29.62 in 6.2 mi South 15.0 mph - N/A   Overcast
7:00 AM 42 °F - 35 °F 70% 29.64 in 25 mi South 13.4 mph - -   Partly Cloudy
7:20 AM 42.8 °F 35.4 °F 35.6 °F 76% 29.62 in 6.2 mi South 15.0 mph - N/A   Overcast
7:25 AM 42.8 °F 35.4 °F 35.6 °F 76% 29.62 in 6.2 mi South 15.0 mph - N/A   Overcast
7:55 AM 42.8 °F 35.8 °F 35.6 °F 76% 29.65 in 6.2 mi South 13.8 mph - N/A   Overcast
8:00 AM 42 °F - 36 °F 72% 29.66 in 28 mi South 13.4 mph - -   Overcast
8:03 AM 42.8 °F 35.8 °F 35.6 °F 76% 29.65 in 6.2 mi South 13.8 mph - N/A   Overcast
8:08 AM 42.8 °F 36.2 °F 35.6 °F 76% 29.65 in 6.2 mi South 12.7 mph - N/A   Overcast
8:18 AM 42.8 °F 35.8 °F 35.6 °F 76% 29.65 in 6.2 mi South 13.8 mph - N/A   Overcast
8:25 AM 42.8 °F 35.8 °F 37.4 °F 81% 29.65 in 6.2 mi South 13.8 mph - N/A   Overcast
8:39 AM 42.8 °F 35.8 °F 37.4 °F 81% 29.65 in 6.2 mi South 13.8 mph - N/A   Overcast
8:43 AM 42.8 °F 35.8 °F 37.4 °F 81% 29.65 in 6.2 mi South 13.8 mph - N/A   Overcast
8:55 AM 42.8 °F 35.8 °F 37.4 °F 81% 29.65 in 6.2 mi SSW 13.8 mph - N/A   Overcast
9:00 AM 43 °F - 37 °F 73% 29.69 in 25 mi South 13.4 mph - -   Overcast
9:25 AM 44.6 °F 37.8 °F 37.4 °F 76% 29.68 in 6.2 mi SSW 15.0 mph - N/A   Overcast
9:55 AM 44.6 °F 38.4 °F 37.4 °F 76% 29.68 in 6.2 mi SSW 12.7 mph - N/A   Scattered Clouds
9:59 AM 44.6 °F 38.4 °F 37.4 °F 76% 29.68 in 6.2 mi SSW 12.7 mph - N/A   Partly Cloudy
10:00 AM 45 °F - 38 °F 70% 29.71 in 28 mi SSW 13.4 mph - -   Scattered Clouds
10:25 AM 44.6 °F 38.8 °F 37.4 °F 76% 29.71 in 6.2 mi SSW 11.5 mph - N/A   Scattered Clouds
10:55 AM 46.4 °F 40.4 °F 39.2 °F 76% 29.71 in 6.2 mi SSW 13.8 mph - N/A   Partly Cloudy
11:00 AM 46 °F - 38 °F 65% 29.74 in 22 mi SSW 15.7 mph - -   Partly Cloudy
11:11 AM 46.4 °F 40.4 °F 37.4 °F 71% 29.74 in 6.2 mi SSW 13.8 mph - N/A   Partly Cloudy
11:25 AM 46.4 °F 40.1 °F 37.4 °F 71% 29.74 in 6.2 mi SSW 15.0 mph - N/A   Mostly Cloudy
11:47 AM 46.4 °F 40.7 °F 37.4 °F 71% 29.74 in 6.2 mi SSW 12.7 mph - N/A   Overcast
11:55 AM 46.4 °F 41.1 °F 37.4 °F 71% 29.74 in 6.2 mi SSW 11.5 mph - N/A   Overcast
12:00 PM 47 °F - 38 °F 61% 29.77 in 22 mi SSW 15.7 mph - -   Overcast
12:05 PM 46.4 °F 39.8 °F 37.4 °F 71% 29.74 in 6.2 mi SSW 16.1 mph - N/A   Overcast
12:25 PM 48.2 °F - 37.4 °F 66% 29.74 in 6.2 mi SSW 15.0 mph - N/A   Overcast
12:42 PM 48.2 °F - 37.4 °F 66% 29.74 in 6.2 mi SSW 13.8 mph - N/A   Overcast
12:55 PM 48.2 °F - 37.4 °F 66% 29.74 in 6.2 mi SSW 13.8 mph - N/A   Mostly Cloudy
1:00 PM 48 °F - 37 °F 57% 29.75 in 19 mi SSW 13.4 mph - -   Partly Cloudy
1:25 PM 48.2 °F - 37.4 °F 66% 29.74 in 6.2 mi SSW 16.1 mph - N/A   Scattered Clouds
1:55 PM 50.0 °F - 37.4 °F 62% 29.74 in 6.2 mi South 17.3 mph - N/A   Partly Cloudy
2:00 PM 49 °F - 37 °F 52% 29.75 in 22 mi SSW 17.9 mph - -   Scattered Clouds
2:25 PM 50.0 °F - 37.4 °F 62% 29.71 in 6.2 mi South 17.3 mph - N/A   Unknown
2:55 PM 50.0 °F - 37.4 °F 62% 29.71 in 6.2 mi South 17.3 mph - N/A   Scattered Clouds
3:00 PM 50 °F - 37 °F 50% 29.73 in 19 mi South 17.9 mph - -   Scattered Clouds
3:25 PM 50.0 °F - 37.4 °F 62% 29.71 in 6.2 mi South 16.1 mph - N/A   Partly Cloudy
3:55 PM 48.2 °F - 35.6 °F 62% 29.71 in 6.2 mi South 18.4 mph - N/A   Partly Cloudy
4:00 PM 49 °F - 36 °F 49% 29.72 in 25 mi South 17.9 mph - -   Scattered Clouds
4:03 PM 48.2 °F - 35.6 °F 62% 29.71 in 6.2 mi SSW 18.4 mph - N/A   Mostly Cloudy
4:16 PM 48.2 °F - 35.6 °F 62% 29.71 in 6.2 mi South 16.1 mph - N/A   Overcast
4:25 PM 48.2 °F - 35.6 °F 62% 29.71 in 6.2 mi South 16.1 mph - N/A   Overcast
4:55 PM 48.2 °F - 35.6 °F 62% 29.71 in 6.2 mi South 13.8 mph - N/A   Mostly Cloudy
5:00 PM 47 °F - 36 °F 55% 29.71 in 25 mi South 13.4 mph - -   Mostly Cloudy
5:25 PM 48.2 °F - 35.6 °F 62% 29.68 in 6.2 mi South 12.7 mph - N/A   Overcast
5:44 PM 46.4 °F 41.5 °F 35.6 °F 66% 29.68 in 6.2 mi SSE 10.4 mph - N/A   Overcast
5:49 PM 46.4 °F 41.5 °F 35.6 °F 66% 29.68 in 6.2 mi SSE 10.4 mph - N/A   Overcast
5:55 PM 46.4 °F 41.9 °F 35.6 °F 66% 29.68 in 6.2 mi SSE 9.2 mph - N/A   Mostly Cloudy
6:00 PM 46 °F - 36 °F 59% 29.70 in 22 mi SSE 8.9 mph - -   Overcast
6:25 PM 46.4 °F 41.1 °F 35.6 °F 66% 29.68 in 6.2 mi South 11.5 mph - N/A   Mostly Cloudy
6:55 PM 46.4 °F 41.9 °F 35.6 °F 66% 29.68 in 6.2 mi SSE 9.2 mph - N/A   Mostly Cloudy
7:00 PM 45 °F - 36 °F 60% 29.68 in 28 mi SSE 8.9 mph - -   Partly Cloudy
7:25 PM 46.4 °F 41.9 °F 35.6 °F 66% 29.65 in 6.2 mi South 9.2 mph - N/A   Mostly Cloudy
7:55 PM 44.6 °F 40.7 °F 35.6 °F 71% 29.65 in 6.2 mi SSE 6.9 mph - N/A   Scattered Clouds
8:00 PM 43 °F - 35 °F 65% 29.67 in 25 mi SSE 6.7 mph - -   Partly Cloudy
8:25 PM 42.8 °F 38.0 °F 35.6 °F 76% 29.65 in 6.2 mi SSE 8.1 mph - N/A   Partly Cloudy
8:55 PM 41.0 °F 35.8 °F 35.6 °F 81% 29.65 in 6.2 mi SSE 8.1 mph - N/A   Unknown
9:00 PM 41 °F - 35 °F 71% 29.65 in 22 mi SSE 6.7 mph - -  
9:25 PM 41.0 °F 35.8 °F 35.6 °F 81% 29.62 in 6.2 mi SSE 8.1 mph - N/A   Scattered Clouds
9:55 PM 41.0 °F 35.2 °F 33.8 °F 76% 29.62 in 6.2 mi SE 9.2 mph - N/A   Unknown
10:00 PM 40 °F - 34 °F 72% 29.62 in 19 mi SE 8.9 mph - -   Scattered Clouds
10:25 PM 39.2 °F 33.0 °F 33.8 °F 81% 29.59 in 6.2 mi SE 9.2 mph - N/A   Unknown
10:55 PM 39.2 °F 33.6 °F 33.8 °F 81% 29.59 in 6.2 mi SE 8.1 mph - N/A   Partly Cloudy
10:58 PM 39.2 °F 33.0 °F 33.8 °F 81% 29.59 in 6.2 mi SE 9.2 mph - N/A   Partly Cloudy
11:00 PM 39 °F - 34 °F 75% 29.60 in 22 mi SE 8.9 mph - -   Scattered Clouds
11:25 PM 39.2 °F 32.5 °F 33.8 °F 81% 29.56 in 6.2 mi SE 10.4 mph - N/A   Partly Cloudy
11:55 PM 39.2 °F 32.5 °F 33.8 °F 81% 29.56 in 6.2 mi SE 10.4 mph - N/A   Unknown